{"data":{"norad_id":57154,"epoch":"2026-09-20T10:14:59.605728Z","epoch_age_seconds":127158,"freshness":"FRESH","line1":"1 57154U 23090BF  26263.42707877  .00001262  00000+0  55361-4 0  9991","line2":"2 57154  43.0021 243.7575 0001313 267.4446  92.6255 15.27578789180320","mean_motion":15.27578789,"eccentricity":0.0001313,"inclination_deg":43.0021,"raan_deg":243.7575,"arg_perigee_deg":267.4446,"mean_anomaly_deg":92.6255,"bstar":5.5361e-5,"rev_number":18032,"period_min":94.266823444352,"perigee_km":482.15184800118,"apogee_km":483.95359642223,"semimajor_km":6861.1897222117,"source":"CELESTRAK","updated_at":"2026-09-21T09:00:33.583341Z"}}